Tracking 19149 objects as of 22-Apr-2018
HD Live streaming from Space Station
objects crossing your sky now

FENGYUN 1C DEB

Track FENGYUN 1C DEB now!
10-day predictions


NORAD ID: 37405
Int'l Code: 1999-025EFX
Perigee: 658.9 km
Apogee: 780.5 km
Inclination: 98.6 °
Period: 99.0 minutes
Semi major axis: 7090 km
RCS: 0.0122 m2 (small)
Launch date: May 10, 1999
Source: People's Republic of China (PRC)
Launch site: Taiyaun Space Center, China (TSC)

Note: This is SATELLITE DEBRIS
aabbcc
Your satellite tracking list
Your tracking list is empty




NASA's NSSDC Master Catalog

Two Line Element Set (TLE):
1 37405U 99025EFX 18104.41370410  .00001625  00000-0  37911-3 0  9996
2 37405  98.6042 171.2471 0085753 273.7698  85.3695 14.54012018479511
Source of the keplerian elements: AFSPC